OBJECT B

Satellite information

Favourite Embed

Satellite Type and Status

UNKNOWNIN ORBIT

Key statistics

Satellite OBJECT B at a glance.

Uptime

206

Days in orbit

Revolutions

≈ 15.2

Per day

Orbit

SSO

Sun Synchronous Orbit

Inclination

97.5

Latest

Satellite identification and parameters

Extended collection of information and parameters for OBJECT B.

Object identification

Identified? True

Debris? False

Object name: OBJECT B

International designator: 2025-108B

Object number (NORAD): 64088

Object ID (CCSDS): 64088

Country: PEOPLES REPUBLIC OF CHINA (PRC)

Current information (Y/N): Y

RCS size: LARGE

Orbital parameters

Period: 94.948 minutes

Inclination: 97.4935 deg

SMA: 6894.196 km

Apoapsis: 524.132 km

Periapsis: 507.99 km

RAAN: 59.1633 deg

Eccentricy: 0.00117073

Argument of periapsis: 303.4161 deg

Mean anomaly: 56.5952 deg

Mean motion: 15.16621864 rev/day

Mean motion (dot): 0.00015088 rev/day2

B* drag term: 0.00077297353 1/REarth

Two-line elements (TLE)

Creation date: Dec. 12, 2025, 10:14 a.m.

Reference frame: TEME

Reference center: EARTH

Epoch: Dec. 12, 2025, 6:23 a.m. UTC

TLE line 0: 0 OBJECT B

TLE line 1: 1 64088U 25108B 25346.26648154 .00015088 00000-0 77297-3 0 9995

TLE line 2: 2 64088 97.4935 59.1633 0011707 303.4161 56.5952 15.16621864 31002

Live tracking on map

Real-time ground track for satellite OBJECT B.

In-orbit conjunctions

There are no conjunctions computed for OBJECT B, at the moment. Check back to stay up to date, as we update our databases every day.

Go to all conjunctions

Associated space launch

Carried 6 satellites to Sun-synchronous orbit, including commercial Earth observation satellites Taijing-3-04 & Taijing-4-02A: * Taijing-3-04 * Taijing-4-02A * Xingrui-11 * Xiguang-1 02 * Xingjiyuan-1 * Cube-108 001

OBJECT B was lifted into orbit during the mission ‘Kinetica 1 | 6 satellites’, on board a Kinetica 1 space rocket.

The launch took place on May 21, 2025, 4:05 a.m. from Launch Area 130.

For more information about the launch, click the button.

Launch to space Kinetica 1 | 6 satellites
Kinetica 1 | 6 satellites

Agency: N/A

Status: Launch Successful

Launch date: May 21, 2025, 4:05 a.m. UTC

Rocket: Kinetica 1

Launch pad: Launch Area 130

Location: Jiuquan Satellite Launch Center, People's Republic of China

...

Latest news about this satellite

News about space launch
Launch Roundup: SpaceX to start new Starlink shell; China, Russia to launch unknown payloads

This week, SpaceX will begin building a new shell for its Starlink constellation, launching from… The post Launch Roundup: SpaceX to start new Starlink shell; China, Russia to launch unknown payloads appeared first on NASASpaceFlight.com.


Newsletter sign-up

Weekly statistics, charts and insights to help you stay on top of the space industry.